Location: Larrial
(48.2758°N, 4.5331°W)
Time: 22:22:33
(UTC+00:00)

AAUSAT CUBESAT 2 - Pass Details

Date: 04 December 2021
Orbit: 571 x 586 km, 97.5° (Epoch: 19 January)

Event Time Altitude Azimuth Distance (km) Brightness Sun altitude
Rises 07:02:09 0° 356° (N) 2,798 ? -8.0°
Reaches altitude 10° 07:05:11 10° 332° (NNW) 1,896 ? -7.6°
Maximum altitude 07:07:19 14° 300° (WNW) 1,649 ? -7.3°
Drops below altitude 10° 07:09:27 10° 269° (W) 1,894 ? -6.9°
Sets 07:12:29 0° 244° (WSW) 2,791 ? -6.5°
